Weather History for KNYL - July, 2014

Change the Weather History Date:

Monday, July 28, 2014

  Actual Average Record
Temperature  
Mean Temperature 97 °F 95 °F  
Max Temperature 108 °F 107 °F 124 °F (1995)
Min Temperature 85 °F 83 °F 66 °F (1909)
Degree Days  
Heating Degree Days 0 0  
Month to date heating degree days 0 0  
Since 1 June heating degree days 0 0  
Since 1 July heating degree days 0 0  
Cooling Degree Days 32 30  
Month to date cooling degree days 875 824  
Year to date cooling degree days 2846 2457  
Since 1 June cooling degree days 1684 1545  
Growing Degree Days 47 (Base 50)    
Moisture  
Dew Point 60 °F    
Average Humidity 33    
Maximum Humidity 47    
Minimum Humidity 18    
Precipitation  
Precipitation 0.00 in 0.02 in 0.52 in (1951)
Month to date precipitation 0.28 0.24  
Year to date precipitation 0.35 1.57  
Sea Level Pressure  
Sea Level Pressure 29.89 in    
Wind  
Wind Speed 6 mph (South)    
Max Wind Speed 16 mph    
Max Gust Speed 20 mph    
Visibility 10 miles    
Events      
T = Trace of Precipitation, MM = Missing Value Source: NWS Daily Summary

Daily Weather History Graph

Daily Weather History Graph

Search for Another Location

Airport or City:

Trip Planner

Search our weather history database for the weather conditions in past years. The results will help you decide how hot, cold, wet, or windy it might be!

Date:

Astronomy

Jul. 28, 2014 Rise Set
Actual Time 5:49 AM MST 7:39 PM MST
Civil Twilight 5:22 AM MST 8:06 PM MST
Nautical Twilight 4:49 AM MST 8:39 PM MST
Astronomical Twilight 4:15 AM MST 9:13 PM MST
Moon 7:26 AM MST (7/28) 8:33 PM MST (7/28)
Length of Visible Light 14h 43m
Length of Day
13h 49m
Waxing Crescent, 3% of the Moon is Illuminated
Jul 28
Waxing Crescent
Aug 3
First Quarter
Aug 10
Full
Aug 17
Last Quarter
Aug 25
New

Hourly Weather History & Observations

Time (MST) Temp. Heat Index Dew Point Humidity Pressure Visibility Wind Dir Wind Speed Gust Speed Precip Events Conditions
12:57 AM 89.1 °F 90.0 °F 63.0 °F 42% 29.89 in 10.0 mi Calm Calm - N/A   Clear
1:57 AM 89.1 °F 90.3 °F 64.0 °F 43% 29.89 in 10.0 mi SE 3.5 mph - N/A   Clear
2:57 AM 87.1 °F 88.9 °F 64.9 °F 48% 29.89 in 10.0 mi Calm Calm - N/A   Clear
3:57 AM 87.1 °F 88.9 °F 64.9 °F 48% 29.90 in 10.0 mi Calm Calm - N/A   Clear
4:57 AM 87.1 °F 87.8 °F 63.0 °F 44% 29.91 in 10.0 mi SSE 4.6 mph - N/A   Clear
5:57 AM 86.0 °F 86.1 °F 61.0 °F 43% 29.92 in 10.0 mi South 6.9 mph - N/A   Mostly Cloudy
6:57 AM 86.0 °F 86.3 °F 62.1 °F 44% 29.93 in 10.0 mi SSE 5.8 mph - N/A   Mostly Cloudy
7:57 AM 89.1 °F 88.8 °F 60.1 °F 38% 29.95 in 10.0 mi SSE 5.8 mph - N/A   Mostly Cloudy
8:57 AM 93.0 °F 91.7 °F 57.0 °F 30% 29.96 in 10.0 mi SSE 6.9 mph - N/A   Mostly Cloudy
9:57 AM 97.0 °F 96.1 °F 57.9 °F 27% 29.97 in 10.0 mi South 8.1 mph - N/A   Scattered Clouds
10:57 AM 98.1 °F 96.8 °F 57.0 °F 25% 29.97 in 10.0 mi Variable 4.6 mph - N/A   Scattered Clouds
11:57 AM 102.0 °F 101.1 °F 57.0 °F 22% 29.95 in 10.0 mi Variable 4.6 mph - N/A   Scattered Clouds
12:57 PM 104.0 °F 102.9 °F 55.9 °F 20% 29.93 in 10.0 mi Variable 5.8 mph - N/A   Partly Cloudy
1:57 PM 105.1 °F 105.0 °F 57.9 °F 21% 29.90 in 10.0 mi Variable 6.9 mph - N/A   Partly Cloudy
2:57 PM 107.1 °F 106.7 °F 57.0 °F 19% 29.87 in 10.0 mi SSW 10.4 mph - N/A   Partly Cloudy
3:57 PM 108.0 °F 107.3 °F 55.9 °F 18% 29.85 in 10.0 mi SSW 9.2 mph - N/A   Partly Cloudy
4:57 PM 107.1 °F 106.7 °F 55.9 °F 19% 29.82 in 10.0 mi SSE 8.1 mph - N/A   Partly Cloudy
5:57 PM 107.1 °F 106.7 °F 55.9 °F 19% 29.81 in 10.0 mi SSE 8.1 mph - N/A   Partly Cloudy
6:57 PM 106.0 °F 105.1 °F 55.9 °F 19% 29.81 in 10.0 mi WSW 8.1 mph - N/A   Partly Cloudy
7:57 PM 100.0 °F 104.2 °F 66.0 °F 33% 29.83 in 10.0 mi SSW 13.8 mph - N/A   Partly Cloudy
8:57 PM 97.0 °F 99.9 °F 64.9 °F 35% 29.86 in 10.0 mi SSW 11.5 mph - N/A   Partly Cloudy
9:57 PM 95.0 °F 96.0 °F 63.0 °F 34% 29.88 in 10.0 mi South 4.6 mph - N/A   Partly Cloudy
10:57 PM 91.9 °F 94.5 °F 66.0 °F 42% 29.88 in 10.0 mi South 5.8 mph - N/A   Clear
11:57 PM 91.9 °F 94.1 °F 64.9 °F 41% 29.88 in 10.0 mi South 4.6 mph - N/A   Clear